Hourly Data Report for July 11, 2003

SHERBROOKE A
QUEBEC

45°26'00.000" N
71°41'00.000" W
241.40 m
7028124
71610
YSC

Download Data

Hourly Data (July 2003)
Hourly Data Report for July 11, 2003
TIME
LST
Temp Definition
°C
Dew Point Definition
°C
Rel Hum Definition
%
Precip. Amount Definition
mm

Wind Dir Definition
10's deg

Wind Spd Definition
km/h
Visibility Definition
km
Stn Press Definition
kPa
Hmdx Definition


Wind Chill Definition


Weather Definition


00:00 16.8 9.8 63   11 13 15.0 98.55      
01:00 15.9 10.0 68   13 6 15.0 98.52      
02:00 15.0 11.5 80   19 4 15.0 98.55     Rain
03:00 13.5 11.6 88   13 6 15.0 98.45     Rain
04:00 12.8 11.0 89   9 7 15.0 98.45     Rain
05:00 12.5 10.9 90   11 11 15.0 98.49     Rain
06:00 12.4 10.9 91   12 9 12.9 98.52     Rain
07:00 12.0 11.1 94   6 11 12.9 98.45     Rain
08:00 11.9 11.0 94   7 11 4.8 98.37     Rain
09:00 12.4 11.5 94   6 9 12.9 98.32     Rain
10:00 13.3 12.6 96   5 6 16.1 98.28     Rain
11:00 13.6 12.6 94   6 6 4.0 98.24     Rain, Fog
12:00 14.5 13.4 93   5 4 24.1 98.17     Cloudy
13:00 16.3 12.2 77   12 30 24.1 98.08     Mostly Cloudy
14:00 16.8 12.3 75   15 17 24.1 98.01     Mostly Cloudy
15:00 16.8 11.8 72   14 20 24.1 97.98     Mostly Cloudy
16:00 16.2 11.1 72   13 22 24.1 98.00     Cloudy
17:00 15.7 11.5 76   11 13 15.0 97.93      
18:00 15.1 11.4 79   12 9 15.0 97.92      
19:00 14.8 11.9 83   13 9 15.0 97.90      
20:00 14.9 11.3 79   14 11 15.0 97.93      
21:00 14.8 11.3 80   13 11 15.0 97.96      
22:00 14.4 11.7 84   12 7 15.0 97.95      
23:00 14.2 12.1 87   11 4 15.0 97.93      

Notes on Data Quality.

Legend

  • E = Estimated
  • M = Missing
  • NA = Not Available*
  • [empty] = Indicates an unobserved value
Date modified: